Home > Weather > Khan Yunis > Past weeks

Flag for Palestinian Territories Weather for the Past 2 Weeks in Khan Yunis, Gaza Strip, Palestinian Territories

Now
46 °F

Clear.


Feels Like: 46 °F
Forecast: 55 / 63 °F
Wind: No wind

Location: El Arish

Current Time: Feb 9, 2016 at 11:21:19 PM

Latest Report: Feb 9, 2016 at 10:00 PM


Visibility: 10 mi

Pressure: 30.12 "Hg

Humidity: 87%

Dew point: 43 °F

Location of Khan YunisLocation

Historic Weather in Khan Yunis — Graph

°F

Khan Yunis Temperature Yesterday

Maximum temperature yesterday: 63 °F (at 2:00 PM)
Minimum temperature yesterday: 46 °F (at 11:00 PM)
Average temperature yesterday: 54 °F

High & Low Weather Summary for the Past Weeks

 TemperatureHumidityPressure
High79 °F (Feb 4, 3:00 PM)100% (Jan 25, 10:00 PM)30.45 "Hg (Jan 25, 10:00 PM)
Low36 °F (Jan 28, 6:00 AM)21% (Feb 4, 3:00 PM)29.95 "Hg (Feb 5, 6:00 AM)
Average53 °F84%30.20 "Hg
* Reported Jan 25 10:00 PM — Feb 9 10:00 PM, Khan Yunis, Weather by CustomWeather, © 2016

Note: Actual official high and low records may vary slightly from our data, if they occured in-between our weather recording intervals... More about our weather records

Advertising

Khan Yunis Weather History for the Previous 24 Hours

 ConditionsComfort  
Time TempWeatherWind HumidityBarometerVisibility
10:00 PM
Tue, Feb 9
46 °FClear.No wind87%30.12 "Hg10 mi
9:00 PM48 °FClear.No wind76%30.12 "Hg10 mi
8:00 PM54 °FClear.2 mph72%30.12 "Hg10 mi
7:00 PM55 °FClear.3 mph63%30.12 "Hg10 mi
6:00 PM57 °FClear.5 mph63%30.12 "Hg10 mi
5:00 PM61 °FSunny.8 mph59%30.12 "Hg10 mi
4:00 PM63 °FSunny.10 mph59%30.12 "Hg10 mi
3:00 PM63 °FSunny.10 mph64%30.12 "Hg10 mi
2:00 PM64 °FSunny.7 mph60%30.12 "Hg10 mi
12:00 PM64 °FSunny.7 mph46%30.18 "Hg10 mi
11:00 AM63 °FSunny.2 mph52%30.21 "Hg10 mi
10:00 AM59 °FSunny.No wind59%30.24 "Hg10 mi
9:00 AM55 °FSunny.No wind72%30.24 "Hg10 mi
8:00 AM45 °FSunny.2 mph87%30.24 "Hg10 mi
7:00 AM37 °FSunny.2 mph100%30.24 "Hg10 mi
6:00 AM37 °FClear.3 mph100%30.21 "Hg10 mi
5:00 AM37 °FClear.3 mph100%30.21 "Hg10 mi
3:00 AM41 °FClear.2 mph100%30.21 "Hg10 mi
2:00 AM43 °FClear.2 mph100%30.24 "Hg10 mi
12:00 AM43 °FClear.5 mph100%30.24 "Hg10 mi
11:00 PM
Mon, Feb 8
46 °FClear.2 mph93%30.27 "Hg10 mi
Weather by CustomWeather, © 2016

See weather overviewHow to use our weather pages